Weather in Laganas

Greece     37°43′46″N   20°52′05″E
temp.,
°C
wind,
m/s
gust,
m/s
humid.,
%
clouds,
%
prec.,
mm/h
press.,
hPa
HPBL,
m
14 may, fri
fri1400:00+17wnw56695 0.0 1014365
03:00+17wnw45700 0.0 1014362
06:00+16wnw34730 0.0 1014341
09:00+19wnw34620 0.0 1015747
12:00+20wsw34555 0.0 1016831
15:00+20sw445184 0.0 1016817
18:00+20sw33525 0.0 1015605
21:00+18ssw337387 0.0 1015126
15 may, sat
sat1500:00+17sw3383100 0.0 1015107
03:00+17ssw11824 0.0 101437
06:00+16se348299 0.0 1012157
09:00+19ssw1168100 0.0 1014259
12:00+20sse455995 0.0 1013776
15:00+20ssw56650 0.2 10121072
18:00+19wnw66700 0.3 1011870
21:00+17nw68730 0.3 1011499
16 may, sun
sun1600:00+17wnw6974100 0.0 1011575
03:00+17nw797391 0.0 1011679
06:00+17nw797771 0.0 1011664
09:00+18nw797129 0.0 1012760
12:00+19nw896526 0.0 1013820
15:00+20wnw7967100 0.0 1013706
18:00+19wnw787242 0.0 1013624
21:00+17nw7107773 0.0 1013502
17 may, mon
mon1700:00+17nw68755 0.0 1013354
03:00+17nw45785 0.0 1013234
06:00+17nw34755 0.0 1012167
09:00+20nnw12595 0.0 1014293
12:00+21w345743 0.0 1014495
15:00+22wsw44560 0.0 1014464
18:00+22w34570 0.0 1014317
21:00+19wnw22750 0.0 101420
18 may, tue
tue1800:00+18w11760 0.0 101411
03:00+18w12800 0.0 101413
06:00+18wnw11840 0.0 101412
09:00+21se22660 0.0 1014131
12:00+23ssw325919 0.0 1014339
15:00+23wsw44615 0.0 1014338
18:00+23wnw35635 0.0 1013257
21:00+20nw337799 0.0 101348